When you browse on this site, cookies collect data to enhance your experience and personalize the content and advertising you see.
Visit our Privacy Policy to learn more. By continuing to use the site, you agree to this use of cookies and data.
  • In Slovakia
  • List of Countries
  • For 7 days
  • Water Temperature
  • Satellite Maps
  • Weather Map
  • Weather Widgets
  • user-avatar
    Login

    Hourly Weather Konstantyna

    Today, 27 May, Monday

    Time Temperature Precipitation Wind Pressure Humidity
    00:00 +11°C° 0 mm 3 mps 705 mmHg 93%
    01:00 +11°C° 0.1 mm 3 mps 705 mmHg 93%
    02:00 +11°C° 0.1 mm 3 mps 705 mmHg 92%
    03:00 +11°C° 0.1 mm 3 mps 705 mmHg 92%
    04:00 +11°C° 0.1 mm 3 mps 705 mmHg 89%
    05:00 +12°C° 0.1 mm 3 mps 705 mmHg 87%
    06:00 +12°C° 0.1 mm 3 mps 706 mmHg 85%
    07:00 +13°C° 0 mm 4 mps 706 mmHg 80%
    08:00 +15°C° 0 mm 5 mps 707 mmHg 74%
    09:00 +16°C° 0 mm 6 mps 707 mmHg 69%
    10:00 +17°C° 0 mm 7 mps 707 mmHg 65%
    11:00 +18°C° 0 mm 7 mps 708 mmHg 61%
    12:00 +20°C° 0 mm 8 mps 708 mmHg 57%
    13:00 +20°C° 0 mm 7 mps 708 mmHg 56%
    14:00 +20°C° 0 mm 7 mps 708 mmHg 55%
    15:00 +20°C° 0 mm 7 mps 708 mmHg 54%
    16:00 +19°C° 0 mm 5 mps 708 mmHg 57%
    17:00 +18°C° 0 mm 4 mps 708 mmHg 60%
    18:00 +17°C° 0 mm 3 mps 708 mmHg 64%
    19:00 +16°C° 0 mm 2 mps 708 mmHg 67%
    20:00 +15°C° 0 mm 1 mps 708 mmHg 70%
    21:00 +13°C° 0 mm 1 mps 708 mmHg 74%
    22:00 +13°C° 0 mm 1 mps 708 mmHg 73%
    23:00 +13°C° 0 mm 1 mps 708 mmHg 72%

    Tomorrow, 28 May, Tuesday

    Time Temperature Precipitation Wind Pressure Humidity
    00:00 +13°C° 0 mm 1 mps 708 mmHg 71%
    01:00 +13°C° 0 mm 1 mps 708 mmHg 72%
    02:00 +13°C° 0 mm 1 mps 708 mmHg 73%
    03:00 +13°C° 0 mm 1 mps 707 mmHg 74%
    04:00 +14°C° 0 mm 1 mps 708 mmHg 70%
    05:00 +15°C° 0 mm 1 mps 708 mmHg 67%
    06:00 +16°C° 0 mm 1 mps 708 mmHg 63%
    07:00 +19°C° 0 mm 1 mps 709 mmHg 56%
    08:00 +21°C° 0 mm 2 mps 709 mmHg 49%
    09:00 +24°C° 0 mm 2 mps 710 mmHg 41%
    10:00 +25°C° 0 mm 3 mps 710 mmHg 39%
    11:00 +26°C° 0 mm 3 mps 710 mmHg 37%
    12:00 +27°C° 0 mm 4 mps 710 mmHg 35%
    13:00 +27°C° 0 mm 4 mps 710 mmHg 37%
    14:00 +26°C° 0 mm 3 mps 710 mmHg 39%
    15:00 +26°C° 0 mm 3 mps 709 mmHg 41%
    16:00 +25°C° 0 mm 2 mps 709 mmHg 46%
    17:00 +24°C° 0 mm 2 mps 709 mmHg 52%
    18:00 +23°C° 0 mm 2 mps 709 mmHg 58%
    19:00 +20°C° 0 mm 2 mps 709 mmHg 63%
    20:00 +20°C° 0 mm 1 mps 709 mmHg 69%
    21:00 +16°C° 0 mm 0 mps 710 mmHg 74%
    22:00 +16°C° 0 mm 0 mps 709 mmHg 75%
    23:00 +15°C° 0 mm 0 mps 709 mmHg 77%

    Day after tomorrow, 29 May, Wednesday

    Time Temperature Precipitation Wind Pressure Humidity
    00:00 +15°C° 0 mm 0 mps 709 mmHg 78%
    01:00 +15°C° 0 mm 0 mps 709 mmHg 78%
    02:00 +15°C° 0 mm 1 mps 709 mmHg 78%
    03:00 +15°C° 0 mm 1 mps 709 mmHg 78%
    04:00 +15°C° 0 mm 1 mps 710 mmHg 80%
    05:00 +15°C° 0 mm 2 mps 710 mmHg 81%
    06:00 +16°C° 0 mm 2 mps 710 mmHg 83%
    07:00 +17°C° 0 mm 2 mps 711 mmHg 78%
    08:00 +18°C° 0 mm 2 mps 711 mmHg 72%
    09:00 +19°C° 0 mm 2 mps 712 mmHg 67%
    10:00 +20°C° 0 mm 2 mps 712 mmHg 64%
    11:00 +21°C° 0 mm 3 mps 712 mmHg 61%
    12:00 +21°C° 0 mm 3 mps 712 mmHg 58%
    13:00 +21°C° 0 mm 4 mps 712 mmHg 60%
    14:00 +21°C° 0 mm 4 mps 712 mmHg 62%
    15:00 +20°C° 0 mm 5 mps 712 mmHg 64%
    16:00 +19°C° 0 mm 4 mps 712 mmHg 67%
    17:00 +18°C° 0 mm 4 mps 712 mmHg 71%
    18:00 +17°C° 0 mm 3 mps 712 mmHg 74%
    19:00 +16°C° 0 mm 3 mps 712 mmHg 78%
    20:00 +15°C° 0 mm 2 mps 713 mmHg 82%
    21:00 +13°C° 0 mm 2 mps 713 mmHg 87%
    22:00 +13°C° 0 mm 1 mps 713 mmHg 87%
    23:00 +12°C° 0 mm 1 mps 713 mmHg 88%

    30 May, Thursday

    Time Temperature Precipitation Wind Pressure Humidity
    00:00 +12°C° 0 mm 1 mps 713 mmHg 89%
    01:00 +12°C° 0 mm 1 mps 713 mmHg 89%
    02:00 +10°C° 0 mm 0 mps 713 mmHg 89%
    03:00 +10°C° 0 mm 0 mps 712 mmHg 88%
    04:00 +11°C° 0 mm 0 mps 713 mmHg 82%
    05:00 +12°C° 0 mm 0 mps 713 mmHg 76%
    06:00 +14°C° 0 mm 1 mps 714 mmHg 69%
    07:00 +16°C° 0 mm 1 mps 714 mmHg 60%
    08:00 +17°C° 0 mm 2 mps 715 mmHg 51%
    09:00 +19°C° 0 mm 2 mps 715 mmHg 42%
    10:00 +20°C° 0 mm 3 mps 715 mmHg 40%
    11:00 +21°C° 0 mm 3 mps 715 mmHg 38%
    12:00 +22°C° 0 mm 3 mps 715 mmHg 36%
    13:00 +22°C° 0 mm 4 mps 715 mmHg 39%
    14:00 +22°C° 0 mm 4 mps 715 mmHg 42%
    15:00 +22°C° 0 mm 5 mps 715 mmHg 45%
    16:00 +21°C° 0 mm 4 mps 715 mmHg 51%
    17:00 +20°C° 0 mm 3 mps 715 mmHg 57%
    18:00 +18°C° 0 mm 3 mps 714 mmHg 63%
    19:00 +17°C° 0 mm 2 mps 715 mmHg 69%
    20:00 +16°C° 0 mm 1 mps 715 mmHg 75%
    21:00 +14°C° 0 mm 1 mps 715 mmHg 81%
    22:00 +14°C° 0 mm 1 mps 714 mmHg 82%
    23:00 +13°C° 0 mm 1 mps 714 mmHg 83%

    31 May, Friday

    Time Temperature Precipitation Wind Pressure Humidity
    00:00 +12°C° 0 mm 0 mps 714 mmHg 84%
    01:00 +12°C° 0 mm 0 mps 714 mmHg 83%
    02:00 +11°C° 0 mm 0 mps 713 mmHg 83%
    03:00 +11°C° 0 mm 0 mps 713 mmHg 82%
    04:00 +12°C° 0 mm 0 mps 714 mmHg 77%
    05:00 +14°C° 0 mm 1 mps 714 mmHg 72%
    06:00 +15°C° 0 mm 1 mps 715 mmHg 68%
    07:00 +18°C° 0 mm 1 mps 715 mmHg 63%
    08:00 +18°C° 0 mm 2 mps 715 mmHg 59%
    09:00 +20°C° 0 mm 3 mps 715 mmHg 54%
    10:00 +21°C° 0 mm 3 mps 715 mmHg 51%
    11:00 +22°C° 0 mm 4 mps 715 mmHg 48%
    12:00 +23°C° 0 mm 4 mps 715 mmHg 46%
    13:00 +23°C° 0 mm 5 mps 715 mmHg 47%
    14:00 +23°C° 0 mm 5 mps 714 mmHg 47%
    15:00 +23°C° 0 mm 5 mps 714 mmHg 48%
    16:00 +22°C° 0 mm 5 mps 714 mmHg 53%
    17:00 +21°C° 0 mm 4 mps 714 mmHg 59%
    18:00 +20°C° 0 mm 3 mps 714 mmHg 64%
    19:00 +18°C° 0 mm 2 mps 714 mmHg 70%
    20:00 +18°C° 0 mm 1 mps 714 mmHg 77%
    21:00 +15°C° 0 mm 1 mps 714 mmHg 83%
    22:00 +15°C° 0 mm 1 mps 713 mmHg 84%
    23:00 +14°C° 0 mm 1 mps 713 mmHg 85%

    1 June, Saturday

    Time Temperature Precipitation Wind Pressure Humidity
    00:00 +14°C° 0 mm 1 mps 713 mmHg 86%
    01:00 +14°C° 0 mm 1 mps 713 mmHg 84%
    02:00 +14°C° 0 mm 1 mps 712 mmHg 82%
    03:00 +13°C° 0 mm 1 mps 712 mmHg 79%
    04:00 +15°C° 0 mm 1 mps 712 mmHg 73%
    05:00 +16°C° 0 mm 2 mps 713 mmHg 66%
    06:00 +17°C° 0 mm 2 mps 713 mmHg 60%
    07:00 +19°C° 0 mm 2 mps 713 mmHg 55%
    08:00 +21°C° 0 mm 3 mps 714 mmHg 50%
    09:00 +22°C° 0 mm 4 mps 714 mmHg 45%
    10:00 +23°C° 0 mm 4 mps 714 mmHg 44%
    11:00 +25°C° 0 mm 5 mps 714 mmHg 43%
    12:00 +26°C° 0 mm 6 mps 714 mmHg 43%
    13:00 +26°C° 0 mm 6 mps 713 mmHg 44%
    14:00 +24°C° 0 mm 6 mps 713 mmHg 45%
    15:00 +24°C° 0 mm 6 mps 712 mmHg 46%
    16:00 +23°C° 0 mm 5 mps 712 mmHg 50%
    17:00 +22°C° 0 mm 4 mps 712 mmHg 53%
    18:00 +20°C° 0 mm 3 mps 712 mmHg 56%
    19:00 +19°C° 0 mm 2 mps 712 mmHg 63%
    20:00 +18°C° 0 mm 1 mps 712 mmHg 70%
    21:00 +14°C° 0 mm 0 mps 712 mmHg 76%
    22:00 +14°C° 0 mm 0 mps 712 mmHg 77%
    23:00 +14°C° 0 mm 0 mps 711 mmHg 78%
    Show more